Regional Weather Roundup
Issued by NWS Pendleton, OR

Home | Current Version | Previous Version | Text Only | Print | Product List | Glossary On
Versions: 1 2 3 4 5 6 7 8 9 10 11 12 13 14 15 16 17 18 19 20 21 22 23 24 25 26 27 28 29 30 31 32 33 34 35 36 37 38 39 40 41 42 43 44 45 46 47 48 49 50
000
ASUS46 KPDT 021525
RWRPDT
PENDLETON REGIONAL WEATHER ROUNDUP
NATIONAL WEATHER SERVICE PENDLETON OREGON
700 AM PST MON MAR 2 2015

NOTE: FAIR INDICATES FEW OR NO CLOUDS BELOW 12,000 FEET WITH NO
SIGNIFICANT WEATHER AND/OR OBSTRUCTIONS TO VISIBILITY.

# INDICATES UNOFFICIAL STATION AND DATA

WAZ520-021610-
EAST SLOPES OF WASHINGTON CASCADES

CITY            SKY/WX      TMP DP  RH  WIND    PRES   REMARKS
#BUMPING DAM    N/A         29  N/A N/A N5      N/A
#CLE ELUM HS    N/A         32  27  82  CALM    29.90R
#CLE ELUM LAKE  N/A         33  26  75  CALM    29.95R
#CLIFFDEL 2NW   N/A         30  27  88  CALM    N/A
#GLENWOOD       N/A         29  26  88  CALM    29.95R
#MANASTASH CYN  N/A         31  26  81  CALM    29.88R
#NELSON         N/A         32  30  92  CALM    29.99S
#NELSON 3SW     N/A         31  29  92  CALM    30.18S
#NILE           N/A         33  30  89  CALM    29.22S
#RONALD 2NW     N/A         35  22  59  CALM    29.78R
#SNOWDEN        N/A         30  16  55  CALM    N/A
#TEANAWAY 4NE   N/A         32  28  85  S2      N/A
#TROUT LAKE 1NE N/A         32  29  89  CALM    29.94R
$$

WAZ521-021610-
SIMCOE HIGHLANDS

CITY            SKY/WX      TMP DP  RH  WIND    PRES   REMARKS
#CENTERVILLE 4W N/A         34  25  69  N1      29.65R
#CENTERVILLE 1SWN/A         27  23  85  CALM    29.93R
#GOLDENDALE     N/A         29  24  81  CALM    N/A
#GOLDENDALE 1NE N/A         27  16  63  N3      N/A
#GOLDENDALE 5WNWN/A         N/A N/A N/A CALM    29.91R
#GOODNOE HILLS  N/A         36  20  52  W2      N/A
#LYLE 6NE       N/A         34  28  78  CALM    29.91R
$$

WAZ026-021610-
KITTITAS VALLEY

CITY            SKY/WX      TMP DP  RH  WIND    PRES   REMARKS
ELLENSBURG AP   CLOUDY      36  28  72  E5      29.91S
#ELLENSBURG CWU N/A         35  29  78  CALM    29.90S
#ELLENSBURG 3NE N/A         34  28  78  E1      29.93R
#ELLENSBURG 1E  N/A         33  26  75  CALM    N/A
#KITTITAS 4N    N/A         35  27  72  CALM    28.24R
#KITTITAS 3S    N/A         31  29  92  CALM    29.95F
#THORP 6N       N/A         33  27  78  NW1     29.97F
$$

WAZ027-021610-
YAKIMA VALLEY

CITY            SKY/WX      TMP DP  RH  WIND    PRES   REMARKS
SUNNYSIDE AP    PTCLDY      28  23  81  CALM    29.94R
YAKIMA AIRPORT  MOCLDY      34  28  78  W7      29.94R
YAKIMA-VAGABOND MOCLDY      38  27  64  E10     29.93R
#DONALD 2NE     N/A         38  19  46  CALM    28.79R
#MABTON         N/A         31  26  81  CALM    29.94R
#NACHES 2SW     N/A         37  31  79  CALM    29.91R
#OUTLOOK DOT    N/A         N/A N/A N/A N2      N/A
#SELAH 8E       N/A         34  25  69  E2      N/A
#TERRACE HTS    N/A         39  28  64  CALM    29.93R
#TOPPENISH      N/A         32  27  82  CALM    29.88R
#WAPATO 4NE     N/A         38  19  46  CALM    28.79R
#WEST VALLEY    N/A         34  29  82  CALM    29.95R
#W YAKIMA       N/A         39  29  67  CALM    29.97R
#WHITE SWAN 5E  N/A         31  27  85  S1      29.97R
#WILEY CITY 3W  N/A         33  26  75  CALM    29.94R
$$

WAZ028-021610-
LOWER COLUMBIA BASIN...WASHINGTON

CITY            SKY/WX      TMP DP  RH  WIND    PRES   REMARKS
HANFORD         CLOUDY      37  22  54  NW9     29.95
PASCO           MOCLDY      30  24  78  CALM    29.96R
PROSSER AWOS    N/A         30  27  88  W1      29.98R
RICHLAND AWOS   MOCLDY      34  25  69  CALM    29.96R
#BASIN CITY 5SW N/A         35  24  64  N5      29.95R
#CONNELL 5N     N/A         31  23  72  CALM    29.96R
#CONNELL 5NW    N/A         30  23  75  N1      29.92R
#ELTOPIA        N/A         33  25  72  CALM    29.93R
#ELTOPIA 6NW    N/A         32  26  78  N5      28.90R
#KAHLOTUS       N/A         30  23  75  E1      29.95R
#KENNEWICK 3S   N/A         34  22  61  CALM    29.97R
#PASCO-BROADMOORN/A         31  23  72  CALM    29.88R
#PATERSON       N/A         34  25  69  CALM    29.94R
#PROSSER        N/A         35  22  59  CALM    29.96R
#SAGEMOOR 2W    N/A         33  27  78  CALM    29.81R
#TOUCHET 2S     N/A         25  22  88  CALM    29.95R
#WEST PASCO     N/A         33  23  66  CALM    29.94R
$$

WAZ029-021610-
FOOTHILLS OF THE BLUES...WASHINGTON

CITY            SKY/WX      TMP DP  RH  WIND    PRES   REMARKS
WALLA WALLA AP  MOCLDY      34  24  66  S5      29.90R
#DAYTON SCHOOL  N/A         30  17  58  CALM    29.91R
#LOWDEN 2SE     N/A         27  25  92  CALM    29.91R
#PLEASANT VIEW 1N/A         31  22  69  NW1     29.98R
#PRESCOTT       N/A         30  27  88  CALM    29.93R
#SUDBURY        N/A         28  N/A N/A CALM    N/A
#WHITMAN COLLEGEN/A         34  24  66  SE2     29.98R
#WAITSBURG 5S   N/A         34  24  66  SE1     30.02R
#WAITSBURG 8N   N/A         32  10  39  N1      29.76S
#WALLA WALLA 5E N/A         33  27  78  S1      N/A
#WHITMAN MISSIONN/A         28  25  88  CALM    29.97R
$$

WAZ030-021610-
BLUE MOUNTAINS...WASHINGTON

CITY            SKY/WX      TMP DP  RH  WIND    PRES   REMARKS
#DIXIE 5SE      N/A         35  17  47  CALM    29.77S
#SKI BLUEWOOD   N/A         24  19  81  CALM    29.79S
$$

ORZ009-041-WAZ024-021610-
COLUMBIA RIVER GORGE

CITY            SKY/WX      TMP DP  RH  WIND    PRES   REMARKS
HOOD RIVER AP   CLOUDY      36  32  85  CALM    29.94R
THE DALLES AP   MOCLDY      34  28  78  E7      29.94R
#ARLINGTON AIRPON/A         36  29  75  CALM    30.01S
#ARLINGTON HS   N/A         33  28  82  W2      29.87F
#CELILO DOT     N/A         37  26  64  CALM    N/A
#MOSIER 1S      N/A         35  26  69  CALM    29.91S
#MURDOCK        N/A         37  33  85  E1      29.98R
#RUFUS DOT      N/A         N/A N/A N/A CALM    N/A

$$

ORZ510-021610-
NORTH CENTRAL OREGON

CITY            SKY/WX      TMP DP  RH  WIND    PRES   REMARKS
#CHENOWITH 1W   N/A         35  30  82  W14     N/A    WCI 26
#COW CYN RST AREN/A         33  20  58  N2      N/A
#DUFUR 9E       N/A         36  28  72  CALM    29.97R
#GRASS VALLEY 1SN/A         33  27  78  CALM    29.97R
#KENT DOT       N/A         33  15  47  N6      N/A
#MAUPIN SCHOOL  N/A         35  27  72  CALM    29.93R
#MORO SCHOOL    N/A         37  33  85  N7      29.91R
#SHANIKO 5WSW   N/A         31   9  39  N10     N/A
#SHANIKO 4NW    N/A         30  18  60  NE7     29.83R
#TYGH VALLEY 2NEN/A         33  27  78  CALM    29.94R
#WAPANITIA AIRPON/A         29  24  81  CALM    29.96R
#WASCO DOT      N/A         30  27  88  E1      N/A
#WASCO AIRPORT  N/A         33  26  75  CALM    N/A
#WASCO 5NE      N/A         31  27  85  CALM    29.95R
$$

ORZ511-021610-
CENTRAL OREGON

CITY            SKY/WX      TMP DP  RH  WIND    PRES   REMARKS
BEND AIRPORT    PTCLDY      28  19  68  W6      29.83S
MADRAS AIRPORT  CLOUDY      28  25  88  CALM    29.88R
PRINEVILLE AP   PTCLDY      25  23  92  MISG    29.83S
REDMOND AIRPORT PTCLDY      24  21  88  S3      29.83S
#BEND 6E        N/A         30  17  58  CALM    29.92R
#BEND 1SW       N/A         26  22  85  CALM    N/A
#BEND-AWBREY    N/A         29  22  75  CALM    29.92S
#BEND-KIM LN    N/A         28  21  75  CALM    29.80S
#CULVER         N/A         29  22  75  CALM    29.82R
#LAKE BILLY CHINN/A         32  17  53  CALM    30.01R
#POWELL BUTTE 3EN/A         26  22  85  E1      N/A
#POWELL BUTTE   N/A         29  20  69  SW1     29.47S
#PRINEVILLE 3N  N/A         25  22  88  CALM    29.89R
#WARM SPRINGS   N/A         29  25  85  CALM    29.86S

$$


ORZ509-021610-
EAST SLOPES OF OREGON CASCADES

CITY            SKY/WX      TMP DP  RH  WIND    PRES   REMARKS
#BLUE BOX PASS  N/A         30  -18 11  CALM    N/A
#CAMP SHERMAN   N/A         25  20  81  CALM    29.96R
#LA PINE DOT    N/A         27  16  63  NW3     N/A
#LA PINE 4NW    N/A         25  17  71  CALM    29.94F
#LAVA BUTTE DOT N/A         24  15  68  CALM    N/A
#MT BACHELOR-MIDN/A         22  13  68  SW2     N/A
#SISTERS AIRPOR N/A         27  25  92  CALM    30.17S
#SISTERS ODOT   N/A         27  N/A N/A CALM    N/A
#SISTERS 1NW    N/A         28  23  81  VRB5    N/A
#SISTERS 3N     N/A         26  13  57  CALM    29.87S
#SUNRIVER       N/A         24  20  84  CALM    29.81F
#TUMALO 3W      N/A         32  20  61  N2      29.78S
#WANOGA BUTTE D N/A         22  12  65  CALM    N/A

$$

ORZ044-021610-
LOWER COLUMBIA BASIN...OREGON

CITY            SKY/WX      TMP DP  RH  WIND    PRES   REMARKS
HERMISTON       PTCLDY      26  21  81  S5      29.93R
#BOARDMAN 8SW   N/A         32  28  85  CALM    29.95R
#ECHO 8SW       N/A         29  24  81  SW1     29.91R
#IONE SCHOOL    N/A         31  18  58  CALM    29.91R
#IRRIGON 4NW    N/A         32  29  89  E1      N/A
#UMATILLA SCHOOLN/A         25  25  100 CALM    30.02R
#UMATILLA       N/A         33  26  75  CALM    29.92R
$$

ORZ507-021610-
NORTHERN FOOTHILLS OF THE BLUES

CITY            SKY/WX      TMP DP  RH  WIND    PRES   REMARKS
PENDLETON AIRPT PTCLDY      30  23  75  CALM    29.89R
#ADAMS 3WNW     N/A         28  24  85  CALM    29.95R
#ATHENA         N/A         27  23  85  CALM    29.96R
#CAYUSE         N/A         35  27  72  CALM    29.92
#HELIX SCHOOL   N/A         29  24  81  CALM    29.95R
#HELIX 3N       N/A         32  21  63  N1      29.85S
#HELIX 6SW      N/A         27  23  85  CALM    29.90
#HOLDMAN 6E     N/A         29  23  78  CALM    29.75R
#M-F FERNDALE   N/A         30  24  78  CALM    29.91R
#M-F GROVE ELEM N/A         30  22  72  CALM    29.90R
#M-FREEWATER 5SEN/A         31  24  75  CALM    29.91R
#PENDLETON DNTN N/A         28  17  63  CALM    29.93R
#PDT AQUATIC CTRN/A         29  16  58  CALM    29.89S
#PENDLETON 5NE  N/A         27  23  85  CALM    29.86R
#PDT SUNRIDGE   N/A         25  22  88  CALM    29.93R
#PENDLETON 7NW  N/A         26  21  81  CALM    27.41S
#PILOT ROCK     N/A         28  19  68  CALM    29.91R
#TUTUILLA       N/A         26  23  88  SW1     29.94R
#UMAPINE 2E     N/A         29  25  85  CALM    29.90R
#WESTON SCHOOL  N/A         32  20  61  CALM    29.88R

$$

ORZ508-021610-
SOUTHERN FOOTHILLS OF THE BLUES

CITY            SKY/WX      TMP DP  RH  WIND    PRES   REMARKS
LEXINGTON       MOCLDY      32  28  85  CALM    29.92R
#AJAX           N/A         35  20  54  VRB2    29.83R
#CONDON SCHOOL  N/A         33  23  66  CALM    29.83R
#CONDON 5W      N/A         32  18  56  N6      29.81S
#FOSSIL SCHOOL  N/A         27  23  85  CALM    29.85R
#HEPPNER EOC    N/A         32  25  75  E1      29.89R
#HEPPNER 4NE    N/A         31  22  69  CALM    29.92S
#LEXINGTON 2SE  N/A         31  25  78  S3      29.88R
#MIKKALO        N/A         31  25  78  SE1     29.91R
#OLEX 4N        N/A         35  28  75  CALM    29.92R
#RUGGS 5NE      N/A         33  20  58  VRB6    30.01S
#RUGGS 2SW      N/A         30  22  72  W5      29.95R

$$

ORZ502-503-021610-
BLUE MOUNTAINS

CITY            SKY/WX      TMP DP  RH  WIND    PRES   REMARKS
MEACHAM         MOCLDY      21  18  88  CALM    29.82S FOG
#BATTLE MTN DOT N/A         24  20  84  CALM    N/A
#HARDMAN 10S    N/A         24  19  81  CALM    30.06S
#HEPPNER 15SE   N/A         23  20  88  CALM    29.71F
#LADD CYN SMT   N/A         24  18  77  E2      N/A
#LADD CREEK ODOTN/A         27  21  78  SW2     N/A
#LONG CREEK HS  N/A         25  24  96  CALM    29.77F
#N POWDER DOT   N/A         21  20  96  CALM    N/A
#PIKES PEAK     N/A         33  18  53  W1      27.99S
#TOLLGATE       N/A         26  19  74  CALM    29.78S
#TROY SCHOOL    N/A         26  23  88  CALM    29.82S
#UKIAH          N/A         19  17  92  CALM    30.02F
#WESTON 4E      N/A         34  21  58  CALM    29.86S
$$

ORZ505-021610-
JOHN DAY BASIN

CITY            SKY/WX      TMP DP  RH  WIND    PRES   REMARKS
JOHN DAY        PTCLDY      26  22  85  W3      29.82S
#JOHN DAY KJDY  N/A         25  12  57  CALM    30.14R
#MITCHELL       N/A         29  25  85  CALM    29.98F
#MONUMENT HS    N/A         25  21  84  CALM    29.91R
#MT. VERNON 5SE N/A         25  21  84  CALM    29.76F
#SPRAY SCHOOL   N/A         27  N/A N/A CALM    N/A
#WINLOCK        N/A         28  20  71  CALM    29.93S
$$

ORZ506-021610-
OCHOCO AND JOHN DAY HIGHLANDS

CITY            SKY/WX      TMP DP  RH  WIND    PRES   REMARKS
#BUCK CREEK DOT N/A         28  28  100 CALM    N/A
#HORSE RIDGE DO N/A         24  19  81  E2      N/A
#KEYES SMT DOT  N/A         27  20  74  CALM    N/A
#PAULINA SCHOOL N/A         47  42  83  CALM    29.80F
#PINE MTN OBS   N/A         22  16  77  CALM    N/A
#PRAIRIE CITY   N/A         17  12  80  CALM    30.10R
#SENECA 9NW     N/A         10   8  91  CALM    30.01S
$$

ORZ049-021610-
GRANDE RONDE VALLEY

CITY            SKY/WX      TMP DP  RH  WIND    PRES   REMARKS
LA GRANDE       CLEAR       28  19  68  CALM    29.84S
#COVE           N/A         26  22  85  E2      29.87S
#COVE SCHOOL    N/A         28  23  81  CALM    29.84S
#ELGIN 3N       N/A         24  16  71  CALM    29.85S
#ELGIN 1E       N/A         24  19  81  CALM    N/A
#IMBLER SCHOOL  N/A         27  22  81  N8      29.83S
#ISLAND CITY 4N N/A         39  38  96  CALM    29.94R
#LADD CYN DOT   N/A         30  19  63  S2      N/A
#UNION 1S       N/A         29  22  75  CALM    29.84S
$$

ORZ050-021610-
WALLOWA COUNTY

CITY            SKY/WX      TMP DP  RH  WIND    PRES   REMARKS
JOSEPH AIRPORT  CLEAR       23  18  81  CALM    29.82F
#ENTERPRISE HS  N/A         21  18  88  CALM    29.87F
#IMNAHA SCHOOL  N/A         27  23  85  S1      29.89S
#IMNAHA 10S     N/A         29  20  69  SW2     29.86S
#JOSEPH 3N      N/A         19  15  84  CALM    29.86F
#JOSEPH 3W      N/A         27   8  44  CALM    29.66S
#LOSTINE        N/A         20  17  88  CALM    29.77S
#MT HOWARD 8000 N/A         19  -2  39  CALM    29.66F
#PROMISE 1S     N/A         25  21  84  CALM    30.05R
#SHEEP RDG 7000 N/A         23   8  52  CALM    29.92S
#WALLOWA SCHOOL N/A         20  18  92  CALM    30.96F



$$



USA.gov is the U.S. government's official web portal to all federal, state and local government web resources and services.